When you browse on this site, cookies collect data to enhance your experience and personalize the content and advertising you see.
Visit our Privacy Policy to learn more. By continuing to use the site, you agree to this use of cookies and data.
  • In Portugal
  • List of Countries
  • For 7 days
  • Water Temperature
  • Satellite Maps
  • Weather Map
  • Weather Widgets
  • user-avatar
    Login

    Hourly Weather Vikov

    Today, 24 April, Wednesday

    Time Temperature Precipitation Wind Pressure Humidity
    00:00 +10°C° 0 mm 2 mps 760 mmHg 48%
    01:00 +11°C° 0 mm 1 mps 760 mmHg 50%
    02:00 +10°C° 0 mm 1 mps 760 mmHg 51%
    03:00 +10°C° 0 mm 1 mps 760 mmHg 52%
    04:00 +10°C° 0 mm 1 mps 760 mmHg 54%
    05:00 +9°C° 0 mm 1 mps 761 mmHg 55%
    06:00 +10°C° 0 mm 2 mps 761 mmHg 51%
    07:00 +13°C° 0 mm 2 mps 761 mmHg 48%
    08:00 +15°C° 0 mm 2 mps 761 mmHg 44%
    09:00 +17°C° 0 mm 3 mps 761 mmHg 40%
    10:00 +19°C° 0 mm 3 mps 760 mmHg 35%
    11:00 +20°C° 0 mm 4 mps 760 mmHg 30%
    12:00 +21°C° 0 mm 4 mps 760 mmHg 30%
    13:00 +21°C° 0 mm 4 mps 760 mmHg 29%
    14:00 +22°C° 0 mm 4 mps 759 mmHg 29%
    15:00 +21°C° 0 mm 4 mps 759 mmHg 30%
    16:00 +21°C° 0 mm 4 mps 759 mmHg 31%
    17:00 +21°C° 0 mm 4 mps 759 mmHg 32%
    18:00 +19°C° 0 mm 3 mps 759 mmHg 37%
    19:00 +17°C° 0 mm 3 mps 759 mmHg 43%
    20:00 +15°C° 0 mm 2 mps 758 mmHg 48%
    21:00 +14°C° 0 mm 2 mps 759 mmHg 51%
    22:00 +13°C° 0 mm 2 mps 759 mmHg 54%
    23:00 +12°C° 0 mm 2 mps 759 mmHg 56%

    Tomorrow, 25 April, Thursday

    Time Temperature Precipitation Wind Pressure Humidity
    00:00 +12°C° 0 mm 2 mps 759 mmHg 58%
    01:00 +12°C° 0 mm 2 mps 759 mmHg 60%
    02:00 +10°C° 0 mm 2 mps 759 mmHg 61%
    03:00 +10°C° 0 mm 2 mps 759 mmHg 63%
    04:00 +9°C° 0 mm 2 mps 759 mmHg 64%
    05:00 +9°C° 0 mm 2 mps 759 mmHg 65%
    06:00 +12°C° 0 mm 2 mps 759 mmHg 60%
    07:00 +13°C° 0 mm 3 mps 759 mmHg 55%
    08:00 +16°C° 0 mm 3 mps 759 mmHg 50%
    09:00 +17°C° 0 mm 4 mps 759 mmHg 44%
    10:00 +19°C° 0 mm 5 mps 759 mmHg 37%
    11:00 +20°C° 0 mm 6 mps 758 mmHg 31%
    12:00 +21°C° 0 mm 6 mps 758 mmHg 30%
    13:00 +21°C° 0 mm 6 mps 758 mmHg 28%
    14:00 +22°C° 0 mm 6 mps 757 mmHg 27%
    15:00 +22°C° 0 mm 5 mps 757 mmHg 29%
    16:00 +21°C° 0 mm 5 mps 757 mmHg 31%
    17:00 +21°C° 0 mm 5 mps 756 mmHg 33%
    18:00 +19°C° 0 mm 4 mps 756 mmHg 39%
    19:00 +17°C° 0 mm 3 mps 756 mmHg 45%
    20:00 +15°C° 0 mm 2 mps 756 mmHg 51%
    21:00 +13°C° 0 mm 3 mps 756 mmHg 53%
    22:00 +13°C° 0 mm 3 mps 756 mmHg 56%
    23:00 +12°C° 0 mm 3 mps 756 mmHg 58%

    Day after tomorrow, 26 April, Friday

    Time Temperature Precipitation Wind Pressure Humidity
    00:00 +12°C° 0 mm 3 mps 756 mmHg 60%
    01:00 +11°C° 0 mm 3 mps 756 mmHg 62%
    02:00 +11°C° 0 mm 3 mps 756 mmHg 63%
    03:00 +10°C° 0 mm 3 mps 756 mmHg 65%
    04:00 +10°C° 0 mm 3 mps 755 mmHg 66%
    05:00 +10°C° 0 mm 3 mps 755 mmHg 68%
    06:00 +12°C° 0 mm 3 mps 755 mmHg 63%
    07:00 +14°C° 0 mm 4 mps 755 mmHg 58%
    08:00 +16°C° 0 mm 5 mps 755 mmHg 53%
    09:00 +17°C° 0 mm 5 mps 755 mmHg 47%
    10:00 +20°C° 0 mm 5 mps 754 mmHg 41%
    11:00 +21°C° 0 mm 6 mps 754 mmHg 35%
    12:00 +22°C° 0 mm 6 mps 754 mmHg 34%
    13:00 +22°C° 0 mm 6 mps 753 mmHg 32%
    14:00 +23°C° 0 mm 6 mps 753 mmHg 31%
    15:00 +22°C° 0 mm 5 mps 753 mmHg 33%
    16:00 +22°C° 0 mm 5 mps 752 mmHg 35%
    17:00 +22°C° 0 mm 5 mps 752 mmHg 37%
    18:00 +20°C° 0 mm 4 mps 752 mmHg 43%
    19:00 +18°C° 0 mm 4 mps 752 mmHg 49%
    20:00 +15°C° 0 mm 4 mps 751 mmHg 54%
    21:00 +15°C° 0 mm 4 mps 751 mmHg 56%
    22:00 +15°C° 0 mm 4 mps 751 mmHg 57%
    23:00 +14°C° 0 mm 4 mps 751 mmHg 59%

    27 April, Saturday

    Time Temperature Precipitation Wind Pressure Humidity
    00:00 +14°C° 0 mm 4 mps 751 mmHg 61%
    01:00 +13°C° 0 mm 4 mps 750 mmHg 63%
    02:00 +13°C° 0 mm 4 mps 750 mmHg 66%
    03:00 +13°C° 0 mm 4 mps 750 mmHg 66%
    04:00 +13°C° 0 mm 4 mps 749 mmHg 67%
    05:00 +13°C° 0 mm 4 mps 749 mmHg 68%
    06:00 +14°C° 0 mm 4 mps 749 mmHg 66%
    07:00 +14°C° 0 mm 4 mps 749 mmHg 64%
    08:00 +15°C° 0 mm 5 mps 748 mmHg 62%
    09:00 +17°C° 0 mm 5 mps 748 mmHg 58%
    10:00 +20°C° 0 mm 4 mps 748 mmHg 54%
    11:00 +22°C° 0 mm 4 mps 748 mmHg 50%
    12:00 +23°C° 0 mm 4 mps 747 mmHg 49%
    13:00 +25°C° 0 mm 4 mps 747 mmHg 48%
    14:00 +25°C° 0 mm 4 mps 747 mmHg 46%
    15:00 +25°C° 0.1 mm 4 mps 746 mmHg 49%
    16:00 +25°C° 0.1 mm 3 mps 746 mmHg 52%
    17:00 +24°C° 0.1 mm 3 mps 746 mmHg 55%
    18:00 +22°C° 0.6 mm 3 mps 746 mmHg 63%
    19:00 +20°C° 0.6 mm 2 mps 746 mmHg 70%
    20:00 +19°C° 0.6 mm 2 mps 746 mmHg 77%
    21:00 +18°C° 0.5 mm 2 mps 746 mmHg 81%
    22:00 +17°C° 0.5 mm 2 mps 746 mmHg 85%
    23:00 +16°C° 0.5 mm 3 mps 746 mmHg 89%

    28 April, Sunday

    Time Temperature Precipitation Wind Pressure Humidity
    00:00 +16°C° 0.3 mm 2 mps 746 mmHg 89%
    01:00 +16°C° 0.3 mm 2 mps 746 mmHg 89%
    02:00 +16°C° 0.3 mm 2 mps 746 mmHg 90%
    03:00 +15°C° 0 mm 1 mps 746 mmHg 91%
    04:00 +15°C° 0 mm 1 mps 746 mmHg 92%
    05:00 +14°C° 0 mm 0 mps 746 mmHg 94%
    06:00 +15°C° 0 mm 0 mps 747 mmHg 90%
    07:00 +18°C° 0 mm 1 mps 747 mmHg 87%
    08:00 +19°C° 0 mm 1 mps 747 mmHg 83%
    09:00 +20°C° 0.8 mm 1 mps 747 mmHg 78%
    10:00 +20°C° 0.8 mm 2 mps 747 mmHg 73%
    11:00 +21°C° 0.8 mm 2 mps 747 mmHg 68%
    12:00 +23°C° 0.6 mm 2 mps 747 mmHg 64%
    13:00 +24°C° 0.6 mm 2 mps 747 mmHg 59%
    14:00 +24°C° 0.6 mm 1 mps 747 mmHg 55%
    15:00 +24°C° 0.3 mm 2 mps 748 mmHg 59%
    16:00 +23°C° 0.3 mm 2 mps 748 mmHg 63%
    17:00 +23°C° 0.3 mm 2 mps 748 mmHg 67%
    18:00 +20°C° 0.1 mm 2 mps 748 mmHg 73%
    19:00 +19°C° 0.1 mm 2 mps 748 mmHg 78%
    20:00 +18°C° 0.1 mm 3 mps 749 mmHg 84%
    21:00 +17°C° 0.1 mm 3 mps 749 mmHg 85%
    22:00 +17°C° 0.1 mm 3 mps 749 mmHg 87%
    23:00 +15°C° 0.1 mm 4 mps 749 mmHg 89%

    29 April, Monday

    Time Temperature Precipitation Wind Pressure Humidity
    00:00 +15°C° 0.7 mm 4 mps 749 mmHg 90%
    01:00 +14°C° 0.7 mm 4 mps 749 mmHg 91%
    02:00 +13°C° 0.7 mm 5 mps 750 mmHg 92%
    03:00 +13°C° 0.1 mm 5 mps 750 mmHg 91%
    04:00 +13°C° 0.1 mm 5 mps 750 mmHg 90%
    05:00 +13°C° 0.1 mm 5 mps 750 mmHg 89%
    06:00 +13°C° 0 mm 5 mps 750 mmHg 88%
    07:00 +13°C° 0 mm 5 mps 751 mmHg 87%
    08:00 +12°C° 0 mm 5 mps 751 mmHg 86%
    09:00 +13°C° 0 mm 5 mps 751 mmHg 83%
    10:00 +13°C° 0 mm 6 mps 751 mmHg 80%
    11:00 +14°C° 0 mm 6 mps 751 mmHg 77%
    12:00 +14°C° 0 mm 6 mps 751 mmHg 75%
    13:00 +15°C° 0 mm 6 mps 751 mmHg 73%
    14:00 +15°C° 0 mm 5 mps 751 mmHg 71%
    15:00 +15°C° 0 mm 5 mps 751 mmHg 73%
    16:00 +14°C° 0 mm 5 mps 751 mmHg 75%
    17:00 +14°C° 0 mm 5 mps 751 mmHg 77%
    18:00 +13°C° 0 mm 4 mps 752 mmHg 78%
    19:00 +13°C° 0 mm 4 mps 752 mmHg 79%
    20:00 +12°C° 0 mm 4 mps 752 mmHg 79%
    21:00 +12°C° 0 mm 4 mps 752 mmHg 79%
    22:00 +12°C° 0 mm 4 mps 753 mmHg 78%
    23:00 +12°C° 0 mm 4 mps 753 mmHg 77%
    Show more